Regional Weather Roundup
Issued by NWS Mt. Holly, NJ

Home | Current Version | Previous Version | Text Only | Print | Product List | Glossary On
Versions: 1 2 3 4 5 6 7 8 9 10 11 12 13 14 15 16 17 18 19 20 21 22 23 24 25 26 27 28
000
ASUS41 KPHI 280312
RWRPHI

REGIONAL WEATHER ROUNDUP
NATIONAL WEATHER SERVICE MOUNT HOLLY NJ
1100 PM EDT FRI MAY 27 2016

NOTE:  "FAIR" INDICATES FEW OR NO CLOUDS BELOW 12,000 FEET WITH NO
SIGNIFICANT WEATHER AND/OR OBSTRUCTIONS TO VISIBILITY.

 * = STATION DOES NOT REPORT PRECIPITATION (E.G. RAIN, SNOW, ETC.)
        OR FOG.

NJZ015>026-280400-
SOUTHERN NEW JERSEY

CITY           SKY/WX    TMP DP  RH WIND       PRES   REMARKS
POMONA         PTCLDY    72  56  57 SW10      30.12R
WILDWOOD*      CLEAR    N/A N/A N/A S12G17    30.13S
MILLVILLE      CLEAR     72  57  59 VRB6      30.11S
WRIGHTSTOWN    PTCLDY    71  63  73 SW8       30.06S
MOUNT HOLLY    CLEAR     73  62  68 S7        30.08S
TRENTON        CLEAR     76  65  68 S8        30.07R

$$
NJZ001>014-280400-
NORTHERN NEW JERSEY

CITY           SKY/WX    TMP DP  RH WIND       PRES   REMARKS
SUSSEX         CLEAR     72  67  84 CALM      30.05S
ANDOVER*         N/A     74  67  78 CALM      30.06S
MORRISTOWN     PTCLDY    77  63  61 SW7       30.05S
NEWARK         MOCLDY    78  65  63 S14       30.04S
TETERBORO      PTCLDY    79  63  57 S10       30.03S
CALDWELL       PTCLDY    81  66  60 VRB5      30.04R
SOMERVILLE     CLEAR     72  68  87 CALM      30.04R
ALLAIRE*       PTCLDY    72  58  61 S9        30.10S
TOMS RIVER*    PTCLDY    72  52  49 S10G16    30.10S

$$
PAZ043-044-047-054-055-060>062-066>071-280400-
EASTERN PENNSYLVANIA

CITY           SKY/WX    TMP DP  RH WIND       PRES   REMARKS
PHILADELPHIA   PTCLDY    75  64  68 S7        30.09S
NORTH PHILA    CLEAR     79  65  62 S7        30.09R
BLUE BELL*     CLEAR     77  66  69 SW7       30.08R
DOYLESTOWN     CLEAR     76  66  71 S5        30.07S
QUAKERTOWN*    CLEAR     77  68  73 SW3       30.09S
PERKASIE*      FAIR      75  68  78 SW3       30.09S
POTTSTOWN      PTCLDY    77  68  73 S5        30.09R
LANCASTER      MOCLDY    76  67  73 S7        30.07S
COATESVILLE    PTCLDY    75  66  73 VRB5      30.12R
READING        PTCLDY    78  67  68 S10       30.06R
ALLENTOWN      CLEAR     76  66  71 SW5       30.06R
MOUNT POCONO   CLEAR     72  64  76 W6        30.12S
HAZLETON       PTCLDY    73  64  73 CALM      30.14S
LEHIGHTON      FAIR      68  66  94 CALM      30.07R
WILKES BARRE   PTCLDY    73  65  75 CALM      30.06S

$$
DEZALL-MDZ008-012-015-019-020-280400-
DELAWARE AND EASTERN MARYLAND

CITY           SKY/WX    TMP DP  RH WIND       PRES   REMARKS
WILMINGTON     CLEAR     77  63  61 SW9       30.09S
DOVER          PTCLDY    73  62  66 S10       30.09S
GEORGETOWN     CLEAR     71  57  61 S9        30.14R
EASTON         CLEAR     74  65  73 S9        30.15R
PATUXENT       CLEAR     73  61  65 S8        30.10S
OCEAN CITY     CLEAR     71  61  70 SW15G24   30.14S
WALLOPS ISLAND FAIR      68  62  81 S15       30.15S
CAMBRIDGE      PTCLDY    72  61  68 S8        30.12R
SALISBURY      CLEAR     70  58  65 S8        30.13S

$$
PAZ001-021-NYZ056-072-MDZ011-DCZ001-280400-
OTHER NEARBY LOCATIONS

CITY           SKY/WX    TMP DP  RH WIND       PRES   REMARKS
HARRISBURG     CLOUDY    74  67  78 VRB3      30.07R
STATE COLLEGE  PTCLDY    72  65  79 SW5       30.09S
WILLIAMSPORT   MOCLDY    71  66  84 CALM      30.04R
BINGHAMTON     CLOUDY    71  62  73 S6        30.07S
NEW YORK CITY  MOCLDY    77  63  61 VRB3      30.08R
BALTIMORE      MOCLDY    73  65  75 CALM      30.08R
WASHINGTON DC  MOCLDY    76  68  76 S9        30.08S

$$




USA.gov is the U.S. government's official web portal to all federal, state and local government web resources and services.